Simultaneous Nadir Overpasses (SNOs) Predictions

Prediction of SNOs between METOP-B and NOAA-19 Satellite Orbit:

Table of predicted SNOs for the next 14.0 days since TLE Epoch: 12/2/2023
Index Date (METOP-B) Time (METOP-B) Lat,Lon (METOP-B) SZA (METOP-B ) Date (NOAA-19) Time (NOAA-19) Lat,Lon (NOAA-19) SZA (NOAA-19 ) Distance(km) Time Diff (sec)
1 12/02/2023 23:07:27 80.61,-138.74 103.84 12/02/2023 23:06:25 80.61,-138.72 103.82 0.31 62
2 12/02/2023 23:58:07 -80.63, 28.90 76.12 12/02/2023 23:57:20 -80.63, 29.01 76.12 1.85 47
3 12/03/2023 00:48:47 80.64,-163.58 103.92 12/03/2023 00:48:22 80.64,-163.66 103.90 1.65 25
4 12/03/2023 01:39:28 -80.64, 3.72 76.09 12/03/2023 01:39:18 -80.64, 3.72 76.09 0.11 10
5 12/03/2023 02:30:08 80.65, 171.24 103.95 12/03/2023 02:30:19 80.66, 171.41 103.97 3.11 11
6 12/03/2023 03:20:49 -80.65, -21.46 76.05 12/03/2023 03:21:16 -80.65, -21.56 76.06 1.87 27
7 12/03/2023 04:11:28 80.67, 146.06 103.98 12/03/2023 04:12:16 80.67, 146.12 104.01 1.20 48
8 12/03/2023 05:02:09 -80.66, -46.64 76.02 12/03/2023 05:03:12 -80.67, -46.49 75.98 2.89 63
9 12/14/2023 13:00:42 -80.56,-167.83 75.19 12/14/2023 12:59:26 -80.56,-167.68 75.19 2.93 76
10 12/14/2023 13:51:22 80.57, -0.40 104.84 12/14/2023 13:50:25 80.57, -0.37 104.82 0.56 57
11 12/14/2023 14:42:03 -80.57, 166.97 75.16 12/14/2023 14:41:24 -80.57, 167.02 75.17 1.06 39
12 12/14/2023 15:32:43 80.58, -25.60 104.86 12/14/2023 15:32:23 80.57, -25.68 104.85 1.45 20
13 12/14/2023 16:23:23 -80.60, 142.10 75.09 12/14/2023 16:23:21 -80.60, 142.07 75.10 0.87 2
14 12/14/2023 17:14:03 80.61, -50.46 104.93 12/14/2023 17:14:19 80.62, -50.28 104.95 3.26 16
15 12/14/2023 18:04:44 -80.61, 116.91 75.07 12/14/2023 18:05:19 -80.61, 116.76 75.07 2.68 35
16 12/14/2023 18:55:24 80.62, -75.65 104.95 12/14/2023 18:56:17 80.62, -75.59 104.98 1.32 53



Historial Predications of SNOs between METOP-B and NOAA-19
